This is the latest recevied weather packets stored in our database for station/object K0WOI. If no packets are shown the sender has not sent any weather packets the latest 10 day(s).
| Time | Temp. | Humidity | Pressure | Rain* | Wind** | Luminosity | Snow |
|---|---|---|---|---|---|---|---|
| 1776891382 | 26.11° C | 55% | 1009.6 hPa | 0 mm | - | 557 W/m² | - |
| 1776891078 | 26.11° C | 59% | 1009.6 hPa | 0 mm | - | 541 W/m² | - |
| 1776890774 | 25.56° C | 56% | 1009.7 hPa | 0 mm | - | 622 W/m² | - |
| 1776890473 | 25.56° C | 57% | 1009.7 hPa | 0 mm | - | 609 W/m² | - |
| 1776890169 | 25.56° C | 56% | 1009.7 hPa | 0 mm | - | 573 W/m² | - |
| 1776889865 | 25° C | 57% | 1010.1 hPa | 0 mm | - | 588 W/m² | - |
| 1776889562 | 25° C | 58% | 1010.1 hPa | 0 mm | - | 628 W/m² | - |
| 1776889257 | 25.56° C | 57% | 1010.1 hPa | 0 mm | - | 601 W/m² | - |
| 1776888953 | 25.56° C | 58% | 1009.8 hPa | 0 mm | - | 606 W/m² | - |
| 1776888651 | 25.56° C | 58% | 1010.1 hPa | 0 mm | - | 612 W/m² | - |
| 1776888348 | 25° C | 59% | 1010.2 hPa | 0 mm | - | 626 W/m² | - |
| 1776888045 | 25° C | 59% | 1010.2 hPa | 0 mm | - | 644 W/m² | - |
| 1776887740 | 25.56° C | 58% | 1010.3 hPa | 0 mm | - | 658 W/m² | - |
| 1776887438 | 26.11° C | 56% | 1010.3 hPa | 0 mm | - | 665 W/m² | - |
| 1776887134 | 25.56° C | 58% | 1010.4 hPa | 0 mm | - | 683 W/m² | - |
| 1776886832 | 25.56° C | 57% | 1010.3 hPa | 0 mm | - | 676 W/m² | - |
| 1776886528 | 25.56° C | 57% | 1010.3 hPa | 0 mm | - | 688 W/m² | - |
| 1776886226 | 25° C | 62% | 1010.5 hPa | 0 mm | - | 698 W/m² | - |
| 1776885922 | 25.56° C | 60% | 1010.5 hPa | 0 mm | - | 714 W/m² | - |
| 1776885619 | 25.56° C | 59% | 1010.6 hPa | 0 mm | - | 709 W/m² | - |
| 1776885315 | 25° C | 60% | 1010.6 hPa | 0 mm | - | 694 W/m² | - |
| 1776885013 | 25.56° C | 59% | 1010.8 hPa | 0 mm | - | 689 W/m² | - |
* Rain latest hour (hover to see other rain measurements)
** Current wind speed in m/s (hover to see current wind gust speed)